Bradford County (N27)
Towanda, PA
Field Elevation: 730
Lat: 41°44.40N  Long: 76°26.83W
CTAF/Unicom Freq: 123.0000
   
     For Weather-by-Phone, call (570) 265-1024
Weather Advisories
1/26/2015 16:21 Z
Altimeter 29.91" Hg
Wind 020° @ 6 KT
Gusts --
Visibility 1 3/4 SM
Ceiling --
Temperature -7° C (19° F)
Dewpoint -11° C (12° F)
Relative Humidity 78%
Density Altitude --
Condensation Altitude 2,400 feet
Wind Chill -12° C (10° F)
  Wind and Runways
Indicated Runway = 5
History
 
 
More Info
All DigiWx sites map
NOAA Forecast
 
Airport IQ 5010
(LHV) Lock Haven
(PS81) Robert Packer Hospital
 
about DigiWx
 
FAA Disclaimer: The data displayed is for advisory purposes only and is not to be used for flight planning or operations. For official data, please call (570) 265-1024 to hear the current automated AWOS voice message.
  METAR N27 261621Z AUTO 02006KT 1 3/4SM M07/M11 A2991